• In Czech Republic
  • List of Countries
  • For 7 days
  • Water Temperature
  • Satellite Maps
  • Weather Map
  • Weather Widgets
  • user-avatar
    Login

    Hourly Weather Whitehorse

    Today, 20 September, Thursday

    Time Temperature Precipitation Wind Pressure Humidity
    00:00 +2°C° 0 mm 1 mps 690 mmHg 73%
    01:00 +2°C° 0 mm 1 mps 691 mmHg 73%
    02:00 +1°C° 0 mm 1 mps 691 mmHg 73%
    03:00 0°C° 0 mm 0 mps 691 mmHg 73%
    04:00 0°C° 0 mm 0 mps 691 mmHg 73%
    05:00 0°C° 0 mm 0 mps 691 mmHg 72%
    06:00 0°C° 0 mm 0 mps 691 mmHg 72%
    07:00 +2°C° 0 mm 0 mps 691 mmHg 62%
    08:00 +4°C° 0 mm 0 mps 692 mmHg 53%
    09:00 +6°C° 0 mm 0 mps 692 mmHg 44%
    10:00 +8°C° 0 mm 0 mps 692 mmHg 39%
    11:00 +9°C° 0 mm 0 mps 692 mmHg 35%
    12:00 +10°C° 0 mm 0 mps 692 mmHg 31%
    13:00 +10°C° 0 mm 0 mps 691 mmHg 30%
    14:00 +10°C° 0 mm 0 mps 691 mmHg 30%
    15:00 +10°C° 0 mm 0 mps 691 mmHg 29%
    16:00 +8°C° 0 mm 0 mps 690 mmHg 35%
    17:00 +6°C° 0 mm 0 mps 690 mmHg 41%
    18:00 +4°C° 0 mm 0 mps 689 mmHg 47%
    19:00 +3°C° 0 mm 0 mps 690 mmHg 49%
    20:00 +2°C° 0 mm 0 mps 690 mmHg 51%
    21:00 +2°C° 0 mm 0 mps 690 mmHg 53%
    22:00 +1°C° 0 mm 0 mps 690 mmHg 54%
    23:00 +1°C° 0 mm 0 mps 690 mmHg 55%

    Tomorrow, 21 September, Friday

    Time Temperature Precipitation Wind Pressure Humidity
    00:00 +1°C° 0 mm 0 mps 690 mmHg 56%
    01:00 +2°C° 0 mm 1 mps 690 mmHg 56%
    02:00 +2°C° 0 mm 1 mps 689 mmHg 57%
    03:00 +1°C° 0 mm 1 mps 689 mmHg 58%
    04:00 +1°C° 0 mm 1 mps 689 mmHg 58%
    05:00 +1°C° 0 mm 1 mps 689 mmHg 59%
    06:00 +1°C° 0 mm 1 mps 689 mmHg 59%
    07:00 +3°C° 0 mm 1 mps 689 mmHg 52%
    08:00 +5°C° 0 mm 1 mps 689 mmHg 46%
    09:00 +7°C° 0 mm 1 mps 689 mmHg 39%
    10:00 +9°C° 0 mm 1 mps 689 mmHg 36%
    11:00 +10°C° 0 mm 1 mps 688 mmHg 34%
    12:00 +11°C° 0 mm 1 mps 688 mmHg 31%
    13:00 +11°C° 0 mm 1 mps 688 mmHg 31%
    14:00 +11°C° 0 mm 1 mps 687 mmHg 31%
    15:00 +12°C° 0 mm 2 mps 687 mmHg 31%
    16:00 +10°C° 0 mm 1 mps 686 mmHg 39%
    17:00 +7°C° 0 mm 1 mps 686 mmHg 46%
    18:00 +5°C° 0 mm 1 mps 686 mmHg 53%
    19:00 +5°C° 0 mm 1 mps 686 mmHg 55%
    20:00 +4°C° 0 mm 1 mps 686 mmHg 56%
    21:00 +3°C° 0 mm 1 mps 686 mmHg 58%
    22:00 +3°C° 0 mm 1 mps 685 mmHg 59%
    23:00 +3°C° 0 mm 1 mps 685 mmHg 61%

    Day after tomorrow, 22 September, Saturday

    Time Temperature Precipitation Wind Pressure Humidity
    00:00 +1°C° 0 mm 2 mps 685 mmHg 62%
    01:00 +1°C° 0 mm 2 mps 685 mmHg 63%
    02:00 +1°C° 0 mm 2 mps 685 mmHg 64%
    03:00 +1°C° 0 mm 2 mps 684 mmHg 65%
    04:00 -1°C° 0 mm 2 mps 684 mmHg 66%
    05:00 -1°C° 0 mm 2 mps 684 mmHg 66%
    06:00 -1°C° 0 mm 2 mps 684 mmHg 67%
    07:00 +2°C° 0 mm 2 mps 683 mmHg 60%
    08:00 +3°C° 0 mm 3 mps 683 mmHg 52%
    09:00 +5°C° 0 mm 3 mps 683 mmHg 45%
    10:00 +7°C° 0 mm 3 mps 682 mmHg 43%
    11:00 +8°C° 0 mm 4 mps 682 mmHg 40%
    12:00 +10°C° 0 mm 4 mps 682 mmHg 38%
    13:00 +8°C° 0.1 mm 4 mps 682 mmHg 42%
    14:00 +8°C° 0.1 mm 4 mps 681 mmHg 46%
    15:00 +7°C° 0.1 mm 4 mps 681 mmHg 51%
    16:00 +6°C° 0 mm 4 mps 681 mmHg 57%
    17:00 +5°C° 0 mm 3 mps 681 mmHg 64%
    18:00 +4°C° 0 mm 3 mps 681 mmHg 71%
    19:00 +3°C° 0 mm 3 mps 681 mmHg 75%
    20:00 +3°C° 0 mm 3 mps 681 mmHg 79%
    21:00 +3°C° 0 mm 2 mps 681 mmHg 83%
    22:00 +3°C° 0.1 mm 2 mps 681 mmHg 85%
    23:00 +3°C° 0.1 mm 2 mps 681 mmHg 88%

    23 September, Sunday

    Time Temperature Precipitation Wind Pressure Humidity
    00:00 +3°C° 0.1 mm 2 mps 681 mmHg 90%
    01:00 +3°C° 0 mm 2 mps 681 mmHg 92%
    02:00 +2°C° 0 mm 2 mps 681 mmHg 93%
    03:00 +3°C° 0 mm 1 mps 681 mmHg 94%
    04:00 +3°C° 0 mm 1 mps 681 mmHg 94%
    05:00 +3°C° 0 mm 1 mps 681 mmHg 94%
    06:00 +3°C° 0 mm 1 mps 681 mmHg 94%
    07:00 +5°C° 0 mm 1 mps 681 mmHg 88%
    08:00 +6°C° 0 mm 1 mps 682 mmHg 82%
    09:00 +8°C° 0 mm 1 mps 682 mmHg 75%
    10:00 +9°C° 0 mm 1 mps 682 mmHg 71%
    11:00 +10°C° 0 mm 1 mps 683 mmHg 66%
    12:00 +11°C° 0 mm 1 mps 683 mmHg 62%
    13:00 +11°C° 0.2 mm 1 mps 683 mmHg 62%
    14:00 +12°C° 0.2 mm 1 mps 683 mmHg 62%
    15:00 +12°C° 0.2 mm 1 mps 684 mmHg 61%
    16:00 +10°C° 0.2 mm 1 mps 684 mmHg 68%
    17:00 +7°C° 0.2 mm 2 mps 684 mmHg 74%
    18:00 +6°C° 0.2 mm 2 mps 684 mmHg 81%
    19:00 +5°C° 0 mm 2 mps 685 mmHg 83%
    20:00 +4°C° 0 mm 2 mps 685 mmHg 85%
    21:00 +4°C° 0 mm 2 mps 686 mmHg 87%
    22:00 +3°C° 0 mm 2 mps 686 mmHg 88%
    23:00 +3°C° 0 mm 2 mps 686 mmHg 90%

    24 September, Monday

    Time Temperature Precipitation Wind Pressure Humidity
    00:00 +3°C° 0 mm 2 mps 687 mmHg 91%
    01:00 +2°C° 0 mm 2 mps 687 mmHg 92%
    02:00 +2°C° 0 mm 2 mps 688 mmHg 93%
    03:00 +2°C° 0 mm 2 mps 688 mmHg 94%
    04:00 +2°C° 0 mm 2 mps 688 mmHg 94%
    05:00 +3°C° 0 mm 1 mps 689 mmHg 94%
    06:00 +3°C° 0 mm 1 mps 689 mmHg 95%
    07:00 +4°C° 0 mm 1 mps 689 mmHg 88%
    08:00 +6°C° 0 mm 1 mps 690 mmHg 81%
    09:00 +8°C° 0 mm 1 mps 690 mmHg 74%
    10:00 +8°C° 0 mm 2 mps 690 mmHg 67%
    11:00 +9°C° 0 mm 2 mps 691 mmHg 60%
    12:00 +10°C° 0 mm 3 mps 691 mmHg 54%
    13:00 +10°C° 0 mm 3 mps 691 mmHg 55%
    14:00 +10°C° 0 mm 3 mps 690 mmHg 57%
    15:00 +9°C° 0 mm 3 mps 690 mmHg 58%
    16:00 +8°C° 0.1 mm 3 mps 690 mmHg 65%
    17:00 +7°C° 0.1 mm 3 mps 690 mmHg 71%
    18:00 +5°C° 0.1 mm 3 mps 689 mmHg 78%
    19:00 +5°C° 0.2 mm 3 mps 689 mmHg 81%
    20:00 +5°C° 0.2 mm 3 mps 689 mmHg 84%
    21:00 +4°C° 0.2 mm 3 mps 688 mmHg 87%
    22:00 +4°C° 0 mm 3 mps 688 mmHg 89%
    23:00 +4°C° 0 mm 3 mps 687 mmHg 91%

    25 September, Tuesday

    Time Temperature Precipitation Wind Pressure Humidity
    00:00 +4°C° 0 mm 3 mps 686 mmHg 93%
    01:00 +4°C° 0 mm 4 mps 686 mmHg 93%
    02:00 +4°C° 0 mm 4 mps 685 mmHg 92%
    03:00 +5°C° 0 mm 5 mps 684 mmHg 92%
    04:00 +5°C° 0 mm 4 mps 684 mmHg 90%
    05:00 +5°C° 0 mm 4 mps 683 mmHg 89%
    06:00 +4°C° 0 mm 4 mps 682 mmHg 88%
    07:00 +4°C° 0.1 mm 6 mps 682 mmHg 81%
    08:00 +6°C° 0.1 mm 7 mps 682 mmHg 73%
    09:00 +7°C° 0.1 mm 9 mps 682 mmHg 66%
    10:00 +7°C° 0.1 mm 10 mps 683 mmHg 61%
    11:00 +8°C° 0.1 mm 11 mps 683 mmHg 56%
    12:00 +8°C° 0.1 mm 12 mps 684 mmHg 50%
    13:00 +8°C° 0 mm 10 mps 685 mmHg 52%
    14:00 +8°C° 0 mm 9 mps 686 mmHg 53%
    15:00 +9°C° 0 mm 8 mps 687 mmHg 54%
    16:00 +7°C° 0.2 mm 6 mps 687 mmHg 60%
    17:00 +6°C° 0.2 mm 4 mps 688 mmHg 67%
    18:00 +6°C° 0.2 mm 2 mps 689 mmHg 73%
    19:00 +5°C° 0 mm 2 mps 689 mmHg 76%
    20:00 +4°C° 0 mm 2 mps 690 mmHg 80%
    21:00 +4°C° 0 mm 2 mps 691 mmHg 83%
    22:00 +3°C° 0 mm 2 mps 692 mmHg 85%
    23:00 +4°C° 0 mm 1 mps 692 mmHg 87%
    Show more